Cloud_Cover
100 100 100 100 100 100 100 100 18 17 10 5 77 39 5 93 83 99 70 0 1 0 0 0 0 0 0 0 0 0 0 0 0 0 5 42 4 4 0 0 5 5 82 32 5
100 100 100 100 100 100 100 100 91 22 31 5 5 5 92 39 81 100 30 1 0 0 0 0 0 0 0 0 0 0 0 0 0 0 3 97 5 0 0 0 1 5 63 99 39
100 100 100 100 100 100 100 100 100 100 97 76 6 92 93 95 12 61 75 7 5 5 4 0 0 2 0 0 0 0 0 0 0 0 0 38 50 3 0 0 0 0 34 51 32
100 100 100 100 100 100 100 100 100 100 100 100 100 100 100 100 21 9 51 92 100 85 8 14 2 0 0 0 0 0 0 0 0 0 0 0 0 2 0 0 0 0 5 45 6
100 100 100 100 100 100 100 100 100 100 100 100 100 100 100 100 60 16 100 86 97 68 16 5 5 1 5 1 0 0 0 0 0 0 0 0 0 0 0 0 0 0 0 25 64
100 100 100 100 100 100 100 100 100 100 100 100 100 100 100 100 100 100 100 100 100 100 88 21 10 5 4 5 0 0 0 0 0 0 0 0 0 0 0 0 0 0 0 3 76
100 100 100 100 100 100 100 100 100 95 63 100 100 100 100 90 100 100 100 100 100 100 65 14 4 5 2 0 0 0 0 0 0 0 0 0 0 0 0 0 0 0 0 0 18
100 100 100 100 100 100 100 100 100 100 73 64 82 92 100 100 100 74 100 92 69 82 100 41 13 14 8 0 0 0 0 0 0 0 0 0 0 0 0 0 0 0 0 0 0
100 100 100 100 100 100 100 100 100 100 100 96 6 23 88 93 90 98 100 100 57 56 100 57 19 72 92 90 66 44 23 3 0 0 0 0 0 0 0 0 0 0 0 0 0
100 100 100 100 100 100 100 100 100 100 100 77 38 61 33 25 94 50 59 10 72 73 87 69 78 100 66 99 98 64 58 5 1 2 2 0 0 1 0 0 0 0 0 0 0
45 100 100 100 100 100 100 100 100 100 99 79 34 100 100 48 79 18 25 36 12 22 42 67 56 92 20 100 100 96 19 93 15 4 93 96 5 5 5 3 0 0 0 0 0
85 100 93 100 100 100 100 100 100 58 99 69 44 62 30 11 9 60 8 5 76 92 5 86 100 34 5 6 96 74 92 23 35 33 100 100 100 5 1 0 0 0 0 0 0
100 100 100 100 100 100 9 33 67 76 100 87 15 5 5 5 5 5 5 12 48 77 5 100 100 24 87 79 64 29 58 31 34 98 92 100 60 2 1 0 0 0 0 0 0
84 100 100 100 100 88 18 5 100 100 100 100 99 64 5 3 2 0 1 10 78 45 10 9 2 34 14 5 5 60 4 58 38 99 66 91 77 0 0 0 0 0 0 0 0
100 100 100 100 100 19 3 5 100 100 100 52 94 38 5 2 0 1 0 13 4 0 35 3 0 0 8 1 4 16 5 5 71 82 100 100 100 0 0 0 0 0 0 0 0
100 100 100 100 90 16 6 7 83 100 89 100 100 46 13 5 5 4 1 2 3 30 5 1 0 0 0 0 3 5 27 20 82 52 100 8 81 0 0 0 0 0 0 0 0
100 100 100 98 74 95 96 98 100 100 61 100 100 88 21 88 82 43 5 81 54 93 84 11 3 5 2 4 5 5 8 84 100 100 68 0 90 6 0 0 0 0 0 0 0
100 100 100 100 99 100 100 100 100 81 100 94 79 98 100 88 86 49 49 97 91 5 5 74 75 4 2 8 3 5 8 85 84 83 9 5 70 0 0 0 0 0 0 0 0
100 100 100 100 100 86 100 100 91 6 43 100 100 100 100 100 51 100 87 97 7 5 3 5 5 2 0 1 9 6 5 11 100 89 99 8 4 0 0 0 0 0 0 0 0
100 100 100 100 100 100 100 100 29 36 5 100 100 100 100 96 100 100 100 40 36 4 0 0 0 0 5 23 0 2 3 9 85 100 94 20 4 0 0 0 4 1 5 0 0
100 100 100 100 100 100 100 94 81 66 36 97 94 98 78 90 5 36 55 10 1 2 14 35 3 0 5 7 56 89 31 84 47 96 73 91 24 0 0 0 1 37 47 7 15
100 100 100 100 100 100 100 100 5 11 100 100 99 67 8 47 36 84 26 5 2 5 9 100 74 4 5 87 41 18 22 99 100 40 75 64 16 3 0 1 78 100 100 100 71
100 98 100 100 100 100 72 86 28 6 90 92 100 99 5 22 81 64 100 97 90 100 100 62 13 19 5 1 8 19 73 100 100 100 31 76 5 5 78 10 56 100 100 96 98
99 100 100 100 100 100 100 100 93 22 67 100 82 46 5 6 5 73 100 100 100 34 31 98 5 1 0 4 6 3 47 82 100 86 16 78 3 0 54 77 23 20 78 81 96
68 98 100 100 100 100 100 100 49 100 71 100 100 89 5 45 100 100 100 100 15 5 66 8 5 5 5 5 5 17 5 19 82 100 99 40 20 0 100 100 94 16 100 100 100
82 100 100 96 92 94 44 93 5 68 99 100 100 8 5 4 16 100 100 93 14 91 100 98 98 12 5 10 90 14 37 64 11 49 64 70 10 42 27 100 76 55 62 100 100
73 100 100 100 90 100 98 88 21 77 66 37 100 100 8 0 4 100 100 100 100 100 70 36 92 69 83 37 37 9 69 25 5 27 16 5 0 57 0 6 36 5 5 5 5